Theta_e
345 343 337 330 316 315 310 313 320 318 318 326 328 325 324 326 321 314 340 348 349 349 353 359 362 362 361 362 362 362 362 362 362 362 361 359 357 362 361 361 361 361 360 359 358 359 358 357 358
325 329 331 324 312 305 309 318 316 319 322 326 326 326 325 323 333 333 337 348 351 351 354 353 359 358 357 357 356 356 356 356 357 358 360 361 360 360 359 359 358 357 355 353 354 357 349 348 350
319 323 322 318 313 307 310 319 319 322 324 323 322 328 326 327 334 335 344 347 349 350 352 352 357 356 354 353 352 352 352 352 352 354 355 355 354 354 355 357 356 353 350 350 350 353 355 348 345
317 322 322 312 309 315 317 316 323 323 325 327 325 324 331 339 337 338 345 344 344 348 351 353 356 355 352 351 350 351 350 350 351 352 351 350 350 350 349 349 350 351 352 352 350 352 352 355 357
316 314 309 306 310 317 318 318 323 320 323 324 326 324 326 334 338 338 340 339 341 345 348 350 355 353 350 346 345 347 347 347 347 347 346 348 349 348 348 348 348 348 348 348 349 350 351 355 357
314 313 309 307 310 317 319 324 324 324 325 327 325 325 326 336 336 337 339 337 341 343 345 346 351 350 348 346 346 346 346 348 347 346 347 349 348 349 348 347 341 339 342 347 349 349 350 351 354
308 306 309 310 311 315 317 324 322 323 323 325 329 322 325 332 337 336 335 339 340 342 343 342 339 340 346 347 347 347 346 345 344 343 342 344 347 347 346 342 338 339 339 338 342 343 347 350 352
313 308 311 309 310 313 322 320 323 325 324 333 332 321 320 329 336 335 332 329 334 340 339 333 335 334 333 335 347 346 345 344 339 336 335 333 331 333 337 342 340 341 341 338 340 342 343 348 349
312 305 308 309 312 316 323 321 330 334 329 331 331 329 332 336 336 331 326 325 326 330 330 332 330 326 328 333 339 344 344 340 335 329 331 324 319 320 320 328 331 331 337 341 343 344 344 347 349
313 309 312 317 318 319 324 325 327 327 327 327 329 334 336 335 333 326 322 320 323 324 326 330 330 328 327 334 328 326 328 327 324 320 318 318 316 318 319 322 326 327 329 330 334 337 341 335 326
315 312 318 319 319 322 323 322 321 325 321 326 326 329 333 332 330 328 323 323 324 326 328 330 328 328 327 327 327 325 325 323 323 319 316 314 315 314 314 315 314 315 322 317 320 319 320 319 319
312 318 318 319 320 322 321 324 320 324 325 331 332 333 333 331 328 323 322 323 324 325 326 328 329 328 328 327 326 323 321 320 320 316 314 313 313 312 312 312 313 313 314 314 315 316 315 314 315
314 318 319 319 319 320 325 323 322 323 328 332 332 332 326 327 322 322 323 323 324 325 327 327 328 329 328 325 326 321 319 319 316 315 314 313 311 309 308 309 311 311 311 312 313 313 312 312 312
317 317 317 318 318 323 323 322 323 324 328 328 328 325 321 322 324 325 326 326 326 327 326 327 327 326 323 323 322 320 317 315 315 312 311 311 309 307 307 308 309 308 310 309 311 311 310 310 311
317 312 316 318 317 318 322 318 320 326 327 325 326 321 321 323 325 326 327 326 326 327 326 324 325 324 320 319 321 319 316 314 313 311 310 311 308 307 305 306 307 307 308 307 309 309 309 310 311
313 313 308 315 317 320 317 311 322 326 325 322 322 320 320 321 325 327 328 329 328 327 324 322 323 320 319 315 315 315 314 312 312 311 309 310 309 308 305 304 304 306 306 307 310 310 310 310 310
309 305 309 314 319 316 316 315 321 325 323 320 319 319 320 321 324 327 329 329 328 326 323 320 319 317 317 313 313 314 312 312 311 309 308 308 309 308 305 303 304 305 308 309 310 309 309 308 306
304 307 309 309 314 316 313 313 320 323 321 318 317 318 320 321 323 327 329 328 325 325 323 320 318 315 314 312 311 312 311 311 309 308 307 308 307 307 303 303 304 305 308 309 309 307 307 304 305
312 310 309 312 318 313 311 312 318 322 322 318 318 318 319 320 326 327 328 327 325 323 320 318 315 313 312 310 308 308 307 308 308 307 307 307 307 307 303 303 304 305 304 307 307 305 304 302 304
309 306 307 313 317 313 311 311 318 321 321 321 319 319 320 321 324 325 325 325 323 321 319 316 314 313 311 312 310 311 310 308 308 307 306 308 307 306 305 303 304 304 304 303 303 304 302 302 302
307 305 306 308 314 314 311 309 313 321 323 323 323 323 322 322 321 322 324 323 323 319 317 315 314 312 310 312 310 308 308 305 303 304 304 306 307 307 306 305 305 305 304 303 303 303 302 299 303
301 311 310 309 305 303 313 295 304 318 319 321 323 321 321 323 323 323 323 322 319 318 317 314 312 311 311 309 308 305 303 301 302 302 304 305 307 306 308 307 306 306 305 303 304 306 304 305 303
304 309 305 305 301 297 303 298 304 318 315 319 321 321 321 324 324 323 321 322 319 319 314 314 312 311 311 309 306 305 303 303 305 306 305 305 305 306 308 308 307 306 305 305 304 304 306 306 302
308 305 303 301 298 291 303 301 301 310 317 319 323 321 322 323 323 323 323 322 319 316 314 313 311 310 310 309 308 306 305 304 303 304 304 305 305 306 308 311 310 306 308 306 305 305 304 304 306
303 297 290 289 289 290 306 304 307 314 319 320 318 322 322 323 323 322 321 320 318 312 312 312 310 308 309 309 307 307 305 304 304 304 304 305 304 304 307 306 307 309 307 307 306 307 306 304 305
300 298 292 288 293 296 304 302 309 317 319 322 325 323 323 322 321 320 321 319 313 310 310 311 309 308 308 308 307 306 306 305 306 306 306 306 305 305 308 306 307 307 309 308 305 305 307 306 305
299 298 302 294 297 295 304 310 314 317 318 321 321 322 321 321 320 320 320 315 310 308 308 308 308 308 308 307 306 305 306 305 306 307 306 306 307 308 307 306 306 307 306 306 307 303 306 307 307
303 307 297 298 291 290 298 303 306 310 315 319 320 319 321 321 320 322 315 312 309 307 307 309 308 308 307 307 306 306 305 306 308 306 306 306 307 306 306 309 308 305 304 304 305 302 306 305 306
299 299 301 303 300 293 293 300 312 312 315 319 320 321 321 321 321 316 313 310 308 307 307 308 308 308 307 307 306 306 305 306 308 306 306 306 307 308 308 307 308 304 302 302 305 303 303 304 305
304 303 304 298 297 300 298 298 314 317 318 320 321 321 321 320 317 315 313 310 307 305 306 307 307 309 308 307 307 306 306 306 307 306 306 306 306 306 307 307 306 305 302 300 302 304 305 301 304
Wind_Speed
6 4 2 7 9 7 5 8 11 13 22 22 20 20 19 13 7 11 10 16 12 12 10 13 16 17 18 18 18 18 17 16 13 11 9 8 7 6 6 6 7 5 3 3 4 5 7 11 12
2 5 4 3 7 3 5 3 18 13 16 11 23 19 17 19 14 11 8 15 14 12 9 11 17 17 18 18 18 17 16 16 15 13 13 13 9 8 7 7 7 7 6 6 5 4 2 5 11
2 5 4 6 5 2 6 6 17 14 20 6 6 10 8 13 12 7 16 17 15 11 11 13 18 18 19 19 19 18 18 17 16 15 15 15 15 14 13 11 9 6 4 3 3 2 2 5 3
1 1 4 7 7 9 8 5 14 15 10 12 16 11 8 10 4 10 22 19 16 12 12 15 18 18 20 19 19 18 19 18 17 17 14 10 9 10 9 9 9 10 10 8 3 1 5 7 12
2 3 2 2 8 3 6 11 15 16 14 17 13 14 13 12 7 12 20 17 18 11 11 13 18 18 18 18 18 17 16 15 15 15 15 13 9 9 9 8 8 7 7 8 10 7 6 7 8
2 3 9 7 21 10 6 10 15 11 16 19 21 17 9 10 5 5 17 18 17 15 10 12 18 18 17 16 16 16 16 16 17 19 19 16 6 6 6 7 7 8 8 9 10 11 10 9 8
5 2 8 11 8 18 9 14 17 10 13 14 17 13 6 10 8 6 16 16 16 14 11 7 8 14 17 14 13 13 14 17 19 21 23 23 13 12 3 2 4 7 7 9 9 10 11 11 12
5 3 9 5 7 8 9 6 6 14 14 20 18 7 9 6 8 12 17 16 13 11 10 8 6 5 7 7 12 13 14 16 18 19 22 23 22 22 17 6 11 12 10 9 11 11 11 11 12
6 3 3 7 9 13 12 13 19 15 16 9 11 19 13 14 11 11 11 11 12 12 7 6 6 6 6 7 8 9 14 17 17 14 18 13 10 11 16 20 23 24 22 13 15 16 13 12 13
4 5 9 1 14 18 18 19 13 11 15 17 17 14 13 16 14 14 11 8 11 10 9 9 8 8 7 7 6 7 8 5 7 7 8 7 8 10 13 16 22 23 23 21 19 17 14 12 6
4 7 11 13 11 15 11 13 3 17 12 16 18 17 16 12 15 14 11 13 13 11 7 8 7 7 7 6 4 3 3 4 5 7 6 6 7 6 7 6 7 7 16 8 11 11 9 13 10
5 6 10 9 9 17 10 11 6 6 12 19 18 18 19 17 10 12 13 13 12 11 9 9 8 7 7 4 4 4 4 4 5 6 8 8 6 7 8 6 9 6 6 9 9 7 10 12 12
6 5 8 10 12 12 15 13 8 11 15 17 17 14 12 13 11 13 11 11 12 12 11 9 8 6 6 6 4 4 4 4 6 8 9 8 7 7 7 7 7 8 8 9 9 9 9 11 13
10 11 8 9 7 15 17 11 8 9 12 12 11 8 13 17 16 15 14 12 13 12 8 8 7 7 7 5 5 3 4 5 9 8 6 8 6 5 7 7 5 7 7 7 6 7 7 8 8
5 6 12 11 8 5 12 8 10 11 13 10 10 13 14 15 15 14 13 12 12 8 9 7 8 7 7 6 5 4 5 6 7 7 7 9 6 5 5 6 4 5 6 6 5 5 6 6 7
7 9 6 6 8 7 11 7 12 13 14 12 10 14 13 11 16 16 14 12 9 9 10 11 10 9 7 7 5 4 5 5 8 6 5 7 6 6 5 4 4 5 4 4 5 5 5 6 7
11 6 6 10 2 8 3 4 10 12 14 12 10 13 14 12 16 16 16 14 13 11 10 9 7 8 7 8 6 5 7 8 6 5 5 6 5 5 4 4 5 6 5 5 4 4 4 6 7
5 6 6 5 11 5 15 16 7 13 15 15 13 14 14 16 14 15 17 16 14 12 10 9 6 8 7 5 5 4 5 7 5 4 4 5 3 4 4 4 5 5 5 5 4 4 5 4 6
11 10 10 7 14 2 12 20 11 19 13 15 15 15 15 16 17 17 17 15 14 12 10 8 8 7 5 4 3 3 3 4 4 4 5 5 4 5 5 3 4 4 4 6 5 4 5 4 4
8 6 10 15 14 12 21 21 14 21 24 18 18 17 17 17 17 16 15 14 10 12 11 9 8 7 4 2 2 2 4 4 4 3 4 5 5 3 4 5 5 5 4 5 5 4 4 3 4
10 8 10 14 18 12 6 17 18 22 10 6 9 11 21 23 20 17 16 13 12 11 11 9 8 7 5 6 4 4 4 3 5 3 2 2 3 4 4 5 5 6 5 4 5 4 4 3 3
13 9 12 12 7 10 19 8 3 19 17 11 9 17 20 19 17 15 17 12 12 11 11 9 8 7 6 7 6 7 3 2 1 1 1 3 3 3 4 4 5 5 4 5 4 5 3 3 6
16 11 4 5 5 4 11 6 7 18 10 14 11 18 20 19 19 17 16 15 13 13 11 9 8 7 7 7 7 5 3 2 2 2 4 3 4 4 3 3 5 6 4 5 6 6 6 3 2
5 7 7 6 1 3 5 7 5 1 7 4 4 18 18 20 18 17 15 14 13 13 11 10 9 6 8 7 7 3 4 1 2 4 4 4 3 4 4 5 4 5 5 5 5 5 6 5 4
3 5 5 7 4 6 9 5 7 11 20 14 16 11 19 18 18 18 16 14 14 14 13 10 9 7 8 8 6 3 2 3 3 3 3 4 3 3 5 5 5 4 5 6 5 6 5 6 4
8 7 5 7 4 6 2 7 5 6 18 21 13 18 16 15 15 15 15 11 15 13 12 11 9 8 8 8 6 2 4 3 2 2 2 2 2 3 5 6 5 6 6 5 6 4 4 5 5
7 9 9 4 8 2 6 6 6 10 12 18 23 16 17 16 15 14 14 9 12 11 10 10 9 8 8 8 5 3 3 4 2 3 3 2 3 3 4 5 5 6 6 6 5 4 5 5 5
11 5 2 2 5 6 5 5 6 4 5 13 10 18 17 16 16 16 11 14 11 9 9 10 9 10 8 7 6 4 2 2 3 4 4 4 4 4 5 5 5 6 6 6 5 5 4 5 4
3 7 5 2 6 6 0 2 8 11 5 5 12 15 19 19 15 15 14 14 13 9 9 8 8 9 8 7 5 5 2 2 3 3 4 4 4 6 6 5 5 6 6 7 6 6 6 8 6
10 9 7 5 8 3 4 8 6 10 23 15 18 22 19 15 16 16 14 13 10 9 8 7 7 10 7 7 6 4 2 2 3 2 3 3 5 4 5 5 5 5 6 7 7 7 5 6 7
Wind_Direction
172 171 255 22 54 70 295 298 38 74 74 82 78 74 71 58 65 121 84 79 88 71 60 59 63 67 64 65 66 63 63 64 64 66 64 57 46 65 50 63 45 46 60 74 45 8 14 3 346
180 209 68 94 65 42 297 283 66 56 40 66 85 90 70 86 86 100 89 109 89 86 76 72 70 73 72 67 64 65 64 64 60 54 58 60 63 69 69 64 60 50 43 40 25 45 48 337 338
75 223 85 73 110 255 238 219 107 112 101 279 64 35 71 83 80 106 127 124 113 99 88 81 78 75 73 70 68 65 62 58 54 52 52 55 50 43 40 39 48 44 22 29 353 1 191 178 282
215 4 45 120 164 240 210 217 129 122 127 151 122 61 47 81 76 123 124 124 112 106 97 90 85 82 78 75 73 70 67 64 58 56 53 55 56 51 47 40 28 15 6 358 342 282 258 226 213
308 302 281 234 207 156 206 139 109 108 111 101 107 101 95 82 75 86 120 120 113 113 105 103 100 95 89 81 76 73 70 64 53 44 38 36 55 70 63 55 49 25 342 324 315 320 318 285 254
273 154 35 333 296 125 184 108 102 140 116 112 106 110 107 118 113 126 136 119 121 121 122 114 112 109 103 97 85 70 56 45 41 32 23 4 2 52 69 57 45 26 4 345 333 317 301 290 277
226 93 74 254 271 129 162 138 143 141 137 115 126 108 126 140 168 99 101 115 116 121 118 112 113 113 109 105 99 94 79 58 41 26 22 17 12 12 27 74 29 10 345 334 326 318 306 294 275
212 103 144 215 185 120 126 97 131 127 123 128 135 133 144 144 111 98 94 97 105 126 120 115 139 130 127 120 115 106 89 74 58 37 24 17 9 3 358 13 355 334 320 322 313 305 296 283 282
264 202 310 237 142 121 105 96 72 74 78 83 91 130 143 133 120 98 98 108 107 106 112 144 173 156 144 131 133 100 70 66 66 48 40 22 7 2 13 1 4 358 351 324 300 302 283 284 274
112 123 183 336 123 127 129 111 112 102 94 95 107 114 133 145 145 135 133 128 108 100 78 67 53 33 50 82 78 58 56 73 80 58 42 28 16 16 7 1 358 350 345 352 348 337 334 336 346
248 92 15 313 134 109 116 110 86 122 135 142 142 154 163 161 162 148 145 129 119 114 102 90 80 67 52 49 59 55 53 56 84 60 56 43 23 14 0 355 347 335 349 359 360 356 11 5 1
102 175 201 136 112 113 124 137 85 131 154 147 158 177 170 170 158 129 123 113 112 113 120 91 69 69 59 52 58 74 57 51 77 64 53 41 27 15 2 351 336 349 359 356 3 8 2 359 356
102 283 206 109 98 108 119 114 118 115 129 146 170 183 139 140 100 86 100 98 100 101 104 100 85 70 68 51 41 67 55 67 74 60 50 43 43 20 356 344 347 5 359 0 4 4 358 354 344
215 149 149 98 104 103 108 122 114 136 129 143 156 157 116 109 105 95 85 80 71 69 60 100 86 73 70 42 28 91 60 76 82 66 54 50 49 26 357 341 13 9 359 356 359 353 344 343 334
155 118 77 37 17 113 126 131 146 143 141 157 182 130 116 117 110 106 110 101 93 78 65 63 84 54 66 37 27 87 72 76 83 77 56 49 41 31 355 345 13 353 344 341 346 341 341 333 321
80 57 21 318 41 348 9 192 155 156 157 176 162 136 128 121 115 110 104 95 95 92 73 58 43 28 36 30 34 67 75 75 79 78 62 51 36 21 359 356 350 334 334 330 340 337 334 323 318
13 106 51 338 267 20 79 239 180 173 169 173 166 151 146 130 127 125 116 110 98 93 90 77 48 26 9 30 34 65 73 77 79 73 63 55 47 14 6 351 332 327 325 327 332 336 312 322 316
153 126 67 317 267 309 274 249 220 189 183 177 170 158 153 139 142 132 117 110 102 91 88 78 56 30 15 38 27 40 58 91 83 79 67 59 35 3 13 344 326 323 329 321 329 322 316 296 296
168 129 172 181 255 342 240 246 243 194 200 183 177 169 159 147 130 125 117 114 113 107 96 94 72 35 32 38 34 17 50 89 83 80 59 47 19 1 1 337 319 326 335 322 355 304 313 312 319
264 259 215 169 200 184 260 244 220 194 204 187 180 175 151 142 136 130 125 122 121 119 116 102 98 67 27 16 42 28 106 66 108 98 55 21 7 355 341 339 326 332 335 335 333 337 311 295 344
246 230 261 177 206 210 323 259 205 199 199 230 185 169 154 154 143 140 130 132 132 126 120 114 115 95 55 42 42 20 73 38 37 21 34 296 342 340 320 328 336 342 344 334 325 319 343 309 304
269 234 233 260 151 205 203 261 254 167 179 201 248 154 155 148 142 141 139 137 130 128 119 115 103 113 83 59 55 60 67 93 255 249 251 286 303 296 323 343 355 340 338 339 324 330 310 313 330
252 259 234 281 267 32 350 52 333 139 191 190 203 163 157 147 147 144 141 141 141 132 129 122 115 108 115 90 81 67 32 66 324 327 347 328 322 336 317 1 1 341 329 314 322 327 330 301 304
338 337 349 306 190 337 147 119 256 254 200 214 187 176 151 141 143 139 145 148 151 133 133 125 120 124 115 115 112 107 94 65 20 357 14 343 346 347 356 359 359 343 325 320 320 314 327 310 306
359 20 338 311 346 225 188 94 46 345 345 327 286 265 143 148 141 142 151 163 152 141 136 136 127 138 128 111 88 86 63 48 78 39 357 358 344 338 340 2 353 328 329 331 333 332 326 325 320
213 189 195 244 207 239 231 162 176 54 322 294 270 232 140 135 133 145 161 165 130 142 142 132 140 131 125 114 110 79 47 22 28 40 4 347 356 350 353 357 350 342 337 332 336 336 326 334 331
253 236 211 253 279 334 121 88 202 232 246 278 165 167 137 142 153 166 175 131 123 116 129 130 126 125 124 126 131 106 57 355 13 1 43 22 20 329 352 353 345 342 347 340 347 341 340 330 330
191 218 266 278 248 263 196 131 186 239 203 97 159 151 150 156 166 176 131 122 115 113 126 129 132 133 133 121 131 151 129 7 9 31 25 18 7 357 348 349 341 355 359 353 1 338 326 341 331
235 250 250 183 146 205 203 227 206 174 198 186 219 171 159 167 163 124 122 121 126 126 118 128 134 128 117 125 133 97 105 19 26 34 30 13 353 359 352 360 1 5 8 354 351 339 356 355 343
183 206 191 128 281 115 124 258 211 168 187 192 165 164 164 160 140 129 131 135 134 130 129 127 126 131 140 135 128 161 141 48 33 72 48 12 0 352 346 7 12 14 15 353 349 345 350 347 339